Location: Arundel
(45.9667°N, 74.6189°W)
Time: 16:03:21
(UTC+00:00)

Tiangong - Visible Passes

Search period start: 09 December 2023 00:00
Search period end: 19 December 2023 00:00
Orbit: 372 x 383 km, 41.5° (Epoch: 09 December)

Date Brightness Start Highest point End Pass type
(mag) Time Alt. Az. Time Alt. Az. Time Alt. Az.
16 Dec 0.8 11:07:30 10° S 11:09:04 13° SSE 11:10:38 10° SE visible
17 Dec 0.0 11:40:42 10° SW 11:43:18 24° SSE 11:45:55 10° ESE visible
18 Dec 0.4 10:39:48 13° SSW 10:41:26 18° SSE 10:43:39 10° ESE visible
